Flag for U.S.A. Weather past 2 weeks in Wailuku, Hawaii, U.S.A.

Now
84 °F

Scattered clouds.


Feels Like: 88 °F
Forecast: 67 / 84 °F
Wind: 12 mph from North

Location: Kahului Airport

Current Time: May 22, 2015 at 1:19:39 PM

Latest Report: May 22, 2015 at 12:54 PM


Visibility: 10 mi

Pressure: 29.98 "Hg

Humidity: 63%

Dew point: 70 °F

Location of WailukuLocation

Historic Weather in Wailuku — Graph

°F

Wailuku temperature yesterday

Maximum temperature yesterday: 83 °F (at 10:54 AM)
Minimum temperature yesterday: 62 °F (at 5:54 AM)
Average temperature yesterday: 74 °F

Past Weeks' High & Low Weather Summary

 TemperatureHumidityPressure
High84 °F (May 16, 11:54 AM)94% (May 21, 12:54 AM)30.18 "Hg (May 21, 12:54 AM)
Low62 °F (May 21, 5:54 AM)46% (May 17, 11:54 AM)29.94 "Hg (May 21, 2:54 PM)
Average75 °F71%30.07 "Hg
* Reported May 7 11:54 AM — May 22 11:54 AM, Wailuku, Weather by CustomWeather, © 2015

Note: Actual official high and low records may vary slightly from our data, if they occured in-between our weather recording intervals... More about our weather records

Advertising

Wailuku weather history for previous 24 hours

 ConditionsComfort  
Time TempWeatherWind HumidityBarometerVisibility
11:54 AM
Fri, May 22
82 °FScattered clouds.8 mph67%29.98 "Hg10 mi
10:54 AM84 °FScattered clouds.10 mph57%30.00 "Hg10 mi
9:54 AM82 °FScattered clouds.7 mph58%30.00 "Hg10 mi
8:54 AM80 °FScattered clouds.No wind67%29.99 "Hg10 mi
7:54 AM76 °FSunny.No wind74%29.99 "Hg10 mi
6:54 AM69 °FSunny.3 mph87%29.98 "Hg10 mi
5:54 AM65 °FSunny.5 mph91%29.98 "Hg10 mi
4:54 AM65 °FClear.7 mph91%29.96 "Hg10 mi
3:54 AM64 °FClear.6 mph94%29.96 "Hg10 mi
2:54 AM65 °FClear.3 mph91%29.95 "Hg10 mi
1:54 AM66 °FPassing clouds.5 mph90%29.96 "Hg10 mi
12:54 AM68 °FClear.6 mph87%29.97 "Hg10 mi
11:54 PM
Thu, May 21
70 °FClear.No wind84%29.99 "Hg10 mi
10:54 PM70 °FClear.3 mph87%30.00 "Hg10 mi
9:54 PM72 °FPassing clouds.No wind81%29.99 "Hg10 mi
8:54 PM75 °FPassing clouds.5 mph76%29.98 "Hg10 mi
7:54 PM76 °FPartly cloudy.5 mph64%29.98 "Hg10 mi
6:54 PM77 °FPartly sunny.5 mph62%29.97 "Hg10 mi
5:54 PM79 °FScattered clouds.6 mph58%29.95 "Hg10 mi
4:54 PM82 °FScattered clouds.12 mph58%29.94 "Hg10 mi
3:54 PM81 °FPartly sunny.12 mph58%29.95 "Hg10 mi
2:54 PM83 °FScattered clouds.8 mph53%29.94 "Hg10 mi
1:54 PM81 °FScattered clouds.9 mph56%29.96 "Hg10 mi
Weather by CustomWeather, © 2015

See weather overviewHow to use our weather pages